Location: Chochol
(49.7771°N, 14.9780°E)
Time: 04:04:19
(UTC+00:00)

STARLINK-1243 - Pass Details

Date: 09 April 2020
Orbit: 549 x 550 km, 53.0° (Epoch: 06 June)

Event Time Altitude Azimuth Distance (km) Brightness Sun altitude
Rises 19:20:47 0° 292° (WNW) 2,729 8.9 -15.0°
Reaches altitude 10° 19:23:02 10° 291° (WNW) 1,832 7.6 -15.3°
Maximum altitude 19:27:11 74° 207° (SSW) 576 3.6 -15.9°
Enters shadow 19:29:00 32° 128° (SE) 953 4.2 -16.1°
